Simultaneous Nadir Overpasses (SNOs) Predictions

Prediction of SNOs between AQUA and METOP-B Satellite Orbit:

Table of predicted SNOs for the next 14.0 days since TLE Epoch: 1/2/2021
Index Date (AQUA) Time (AQUA) Lat,Lon (AQUA) SZA (AQUA ) Date (METOP-B) Time (METOP-B) Lat,Lon (METOP-B) SZA (METOP-B ) Distance(km) Time Diff (sec)
1 01/02/2021 09:57:01 73.79, 25.02 96.67 01/02/2021 09:56:28 73.77, 25.01 96.66 1.76 33
2 01/02/2021 10:46:28 -73.87,-167.52 83.25 01/02/2021 10:47:08 -73.84,-167.49 83.28 3.01 40
3 01/05/2021 05:31:16 73.79, 91.46 96.39 01/05/2021 05:30:52 73.78, 91.42 96.39 1.66 24
4 01/05/2021 06:20:43 -73.86,-101.07 83.54 01/05/2021 06:21:32 -73.85,-101.06 83.55 0.90 49
5 01/08/2021 00:15:54 -73.34, -8.80 84.42 01/08/2021 00:14:45 -73.28, -10.64 84.41 59.29 69
6 01/08/2021 01:05:30 73.79, 157.88 96.06 01/08/2021 01:05:15 73.78, 157.83 96.05 2.63 15
7 01/08/2021 01:54:57 -73.86, -34.63 83.88 01/08/2021 01:55:55 -73.86, -34.65 83.89 0.65 58
8 01/10/2021 19:50:15 -73.67, 56.96 84.48 01/10/2021 19:49:02 -73.63, 56.56 84.48 13.00 73
9 01/10/2021 20:39:45 73.81,-135.71 95.68 01/10/2021 20:39:38 73.82,-135.66 95.69 2.30 7
10 01/10/2021 21:29:12 -73.87, 31.80 84.27 01/10/2021 21:30:19 -73.86, 31.77 84.28 1.14 67
11 01/13/2021 15:24:31 -73.73, 123.26 84.86 01/13/2021 15:23:24 -73.74, 123.20 84.84 1.75 67
12 01/13/2021 16:14:00 73.83, -69.32 95.25 01/13/2021 16:14:02 73.82, -69.27 95.23 2.42 2



Historial Predications of SNOs between AQUA and METOP-B
